This is the latest recevied weather packets stored in our database for station/object SQ5DCP-1. If no packets are shown the sender has not sent any weather packets the latest 10 day(s).
| Time | Temp. | Humidity | Pressure | Rain* | Wind** | Luminosity | Snow |
|---|---|---|---|---|---|---|---|
| 1777459225 | 6.67° C | 42% | 1027.6 hPa | 0 mm | - | - | - |
| 1777458923 | 6.67° C | 42% | 1027.6 hPa | 0 mm | - | - | - |
| 1777458621 | 7.22° C | 42% | 1027.6 hPa | 0 mm | - | - | - |
| 1777458319 | 7.22° C | 42% | 1027.5 hPa | 0 mm | - | - | - |
| 1777458017 | 7.22° C | 41% | 1027.5 hPa | 0 mm | - | - | - |
| 1777457736 | 7.78° C | 41% | 1027.4 hPa | 0 mm | - | - | - |
| 1777457433 | 7.78° C | 41% | 1027.4 hPa | 0 mm | - | - | - |
| 1777457131 | 7.22° C | 42% | 1027.5 hPa | 0 mm | - | - | - |
| 1777456829 | 7.22° C | 41% | 1027.4 hPa | 0 mm | - | - | - |
| 1777456528 | 7.22° C | 42% | 1027.4 hPa | 0 mm | - | - | - |
| 1777456226 | 7.22° C | 42% | 1027.5 hPa | 0 mm | - | - | - |
| 1777455924 | 7.22° C | 41% | 1027.5 hPa | 0 mm | - | - | - |
| 1777455622 | 7.22° C | 40% | 1027.5 hPa | 0 mm | - | - | - |
| 1777455320 | 7.22° C | 41% | 1027.5 hPa | 0 mm | - | - | - |
| 1777455018 | 7.22° C | 41% | 1027.3 hPa | 0 mm | - | - | - |
| 1777454716 | 7.22° C | 41% | 1027.5 hPa | 0 mm | - | - | - |
| 1777454435 | 6.67° C | 42% | 1027.3 hPa | 0 mm | - | - | - |
| 1777454133 | 6.67° C | 44% | 1027.4 hPa | 0 mm | - | - | - |
| 1777453831 | 6.67° C | 45% | 1027.3 hPa | 0 mm | - | - | - |
| 1777453529 | 6.11° C | 44% | 1027.5 hPa | 0 mm | - | - | - |
| 1777453227 | 6.11° C | 46% | 1027.5 hPa | 0 mm | - | - | - |
| 1777452925 | 6.11° C | 46% | 1027.4 hPa | 0 mm | - | - | - |
| 1777452623 | 6.11° C | 47% | 1027.4 hPa | 0 mm | - | - | - |
| 1777452322 | 5.56° C | 47% | 1027.5 hPa | 0 mm | - | - | - |
| 1777452020 | 6.11° C | 47% | 1027.4 hPa | 0 mm | - | - | - |
* Rain latest hour (hover to see other rain measurements)
** Current wind speed in m/s (hover to see current wind gust speed)